Tracking 20093 objects as of 15-Dec-2019
HD Live streaming from Space Station
objects crossing your sky now

COSMOS 2251 DEB

Track COSMOS 2251 DEB now!
10-day predictions


NORAD ID: 36381
Int'l Code: 1993-036AZJ
Perigee: 721.4 km
Apogee: 799.8 km
Inclination: 74.0 °
Period: 99.9 minutes
Semi major axis: 7131 km
RCS: 0.0126 m2 (small)
Launch date: June 16, 1993
Source: Commonwealth of Independent States (former USSR) (CIS)
Launch site: PLESETSK MISSILE AND SPACE COMPLEX (PKMTR)

Note: This is SATELLITE DEBRIS
aabbcc
Your satellite tracking list
Your tracking list is empty




NASA's NSSDC Master Catalog

Two Line Element Set (TLE):
1 36381U 93036AZJ 19348.71010396 +.00000988 +00000-0 +30697-3 0  9997
2 36381 074.0240 356.8006 0054980 221.6858 138.0103 14.41529972392550
Source of the keplerian elements: AFSPC